Selinsgrove, PA

7:42 PM EST on February 23, 2017 (GMT -0500)
Penn Valley

Weather History for KSEG - November, 2013

Change the Weather History Date:

Friday, November 1, 2013

  Actual Average (KIPT) Record (KIPT)
Temperature  
Mean Temperature 58 °F -  
Max Temperature 72 °F 54 °F 83 °F (1950)
Min Temperature 44 °F 35 °F 22 °F (1925)
Degree Days  
Heating Degree Days 7    
Growing Degree Days 8 (Base 50)    
Moisture  
Dew Point 49 °F    
Average Humidity 73    
Maximum Humidity 90    
Minimum Humidity 34    
Precipitation  
Precipitation 0.13 in - - ()
Sea Level Pressure  
Sea Level Pressure 29.62 in    
Wind  
Wind Speed 6 mph (WSW)    
Max Wind Speed 13 mph    
Max Gust Speed 22 mph    
Visibility 9 miles    
Events Rain    
Averages and records for this station are not official NWS values.
T = Trace of Precipitation, MM = Missing Value Source: NWS Daily Summary

Daily Weather History Graph

Daily Weather History Graph

Search for Another Location

Airport or City:

Trip Planner

Search our weather history database for the weather conditions in past years. The results will help you decide how hot, cold, wet, or windy it might be!

Date:

Astronomy

Nov. 01, 2013 Rise Set
Actual Time 7:38 AM EDT 6:03 PM EDT
Civil Twilight 7:09 AM EDT 6:31 PM EDT
Nautical Twilight 6:37 AM EDT 7:04 PM EDT
Astronomical Twilight 6:05 AM EDT 7:36 PM EDT
Moon 5:27 AM EDT (11/1) 4:55 PM EDT (11/1)
Length of Visible Light 11h 22m
Length of Day
10h 25m
Waning Crescent, 4% of the Moon is Illuminated
Nov 1
Waning Crescent
Nov 3
New
Nov 10
First Quarter
Nov 17
Full
Nov 25
Last Quarter

Hourly Weather History & Observations

Time (EDT) Temp. Dew Point Humidity Pressure Visibility Wind Dir Wind Speed Gust Speed Precip Events Conditions
12:43 AM 62.1 °F 59.0 °F 90% 29.65 in 4.0 mi Variable 5.8 mph - 0.04 in Rain Light Rain
12:53 AM 62.1 °F 59.0 °F 90% 29.64 in 7.0 mi Calm Calm - 0.04 in Rain Light Rain
1:17 AM 62.1 °F 59.0 °F 90% 29.63 in 5.0 mi South 9.2 mph 18.4 mph 0.01 in Rain Light Rain
1:53 AM 62.1 °F 59.0 °F 90% 29.62 in 6.0 mi South 10.4 mph 20.7 mph 0.01 in Rain Rain
2:53 AM 62.1 °F 59.0 °F 90% 29.57 in 5.0 mi South 12.7 mph 21.9 mph 0.05 in Rain Light Rain
8:53 AM 60.1 °F 55.9 °F 86% 29.56 in 10.0 mi Variable 3.5 mph - 0.02 in Rain Light Rain
9:53 AM 60.1 °F 55.9 °F 86% 29.59 in 10.0 mi SSW 6.9 mph - 0.01 in   Partly Cloudy
10:53 AM 62.1 °F 55.0 °F 78% 29.57 in 10.0 mi SSW 9.2 mph 16.1 mph N/A   Clear
11:53 AM 66.9 °F 54.0 °F 63% 29.58 in 10.0 mi SW 11.5 mph 17.3 mph N/A   Scattered Clouds
12:53 PM 69.1 °F 48.9 °F 49% 29.58 in 10.0 mi West 6.9 mph 19.6 mph N/A   Partly Cloudy
1:53 PM 70.0 °F 46.9 °F 44% 29.57 in 10.0 mi West 5.8 mph - N/A   Clear
2:53 PM 72.0 °F 42.1 °F 34% 29.57 in 10.0 mi North - - N/A   Clear
3:53 PM 70.0 °F 41.0 °F 35% 29.58 in 10.0 mi West 8.1 mph 19.6 mph N/A   Clear
4:53 PM 66.9 °F 41.0 °F 39% 29.60 in 10.0 mi West 8.1 mph - N/A   Clear
5:53 PM 63.0 °F 41.0 °F 45% 29.62 in 10.0 mi West 5.8 mph - N/A   Clear
6:53 PM 52.0 °F 44.1 °F 74% 29.64 in 10.0 mi NW 3.5 mph - 0.00 in   Clear
7:53 PM 48.0 °F 44.1 °F 86% 29.67 in 10.0 mi Calm Calm - N/A   Clear
8:53 PM 46.9 °F 44.1 °F 90% 29.68 in 10.0 mi NNW 3.5 mph - N/A   Clear
9:53 PM 45.0 °F 42.1 °F 90% 29.69 in 10.0 mi Calm Calm - N/A   Clear
10:53 PM 44.1 °F 41.0 °F 89% 29.70 in 10.0 mi Calm Calm - N/A   Clear
11:53 PM 44.1 °F 41.0 °F 89% 29.70 in 10.0 mi Calm Calm - N/A   Mostly Cloudy